This demonstration page uses our WeatherBlox Daily Observations layout. Learn more.

Left ArrowRight Arrow

Hourly Observations for July 19, 2020

Temp ( °F °C ) Dew Point ( °F °C ) Humidity (%) Winds ( mph kmh ) Pressure ( in mb ) Visibility ( mi km ) Precip ( " mm )
12:54 am 00:54 Mostly Clear 78 25.6 71 21.7 79 79 N 8 13 29.85 1011 9 14.48406 0 0
1:54 am 01:54 Partly Cloudy 79 26.1 70 21.1 74 74 NNW 9 15 29.88 1012 10 16.0934 0 0
2:54 am 02:54 Mostly Cloudy 78 25.6 69 20.6 74 74 W 9 15 29.93 1014 10 16.0934 0 0
3:54 am 03:54 Mostly Cloudy 77 25 69 20.6 77 77 W 6 9 29.94 1014 10 16.0934 0 0
4:54 am 04:54 Mostly Cloudy 77 25 69 20.6 77 77 W 7 11 29.95 1014 10 16.0934 0 0
5:54 am 05:54 Clear 74 23.3 69 20.6 85 85 N 6 9 29.94 1014 10 16.0934 0 0
6:54 am 06:54 Mostly Cloudy with Light Rain 74 23.3 67 19.4 79 79 NNW 10 17 29.93 1014 10 16.0934 0.001 0.001
7:54 am 07:54 Sunny 73 22.8 66 18.9 79 79 N 12 19 29.93 1014 9 14.48406 0.001 0.001
8:54 am 08:54 Sunny 75 23.9 64 17.8 69 69 Calm 29.95 1014 10 16.0934 0 0
9:54 am 09:54 Sunny 78 25.6 63 17.2 60 60 E 6 9 29.96 1015 10 16.0934 0 0
10:54 am 10:54 Sunny 83 28.3 62 16.7 49 49 VRB 5 7 29.98 1015 10 16.0934 0 0
11:54 am 11:54 Sunny 85 29.4 60 15.6 43 43 Calm 29.99 1016 10 16.0934 0 0
12:54 pm 12:54 Sunny 86 30 59 15 40 40 S 3 6 29.99 1016 10 16.0934 0 0
1:54 pm 13:54 Sunny 88 31.1 60 15.6 39 39 ESE 8 13 29.98 1015 10 16.0934 0 0
2:54 pm 14:54 Partly Cloudy 86 30 61 16.1 43 43 SE 8 13 29.98 1015 10 16.0934 0 0
3:54 pm 15:54 Sunny 88 31.1 62 16.7 42 42 S 10 17 29.97 1015 10 16.0934 0 0
4:54 pm 16:54 Partly Cloudy 86 30 64 17.8 48 48 SE 13 20 29.97 1015 10 16.0934 0 0
5:54 pm 17:54 Sunny 87 30.6 60 15.6 40 40 ESE 13 20 29.95 1014 10 16.0934 0 0
6:54 pm 18:54 Sunny 85 29.4 61 16.1 45 45 SE 9 15 29.93 1014 10 16.0934 0 0
7:54 pm 19:54 Sunny 83 28.3 62 16.7 49 49 ESE 8 13 29.93 1014 10 16.0934 0 0
8:54 pm 20:54 Sunny 79 26.1 60 15.6 52 52 SE 8 13 29.96 1015 10 16.0934 0 0
9:54 pm 21:54 Cloudy 80 26.7 63 17.2 56 56 SE 7 11 29.98 1015 10 16.0934 0 0
10:54 pm 22:54 Cloudy 79 26.1 63 17.2 58 58 SE 7 11 29.97 1015 10 16.0934 0 0
11:54 pm 23:54 Mostly Cloudy 78 25.6 65 18.3 64 64 ESE 6 9 29.96 1015 10 16.0934 0 0

Powered by AerisWeather